Location: Christian Reformed Church
(43.0975°N, 93.8113°W)
Time: 23:10:45
(UTC+00:00)

Meteor 1-25 Rocket - Visible Passes

Search period start: 14 March 2026 00:00
Search period end: 24 March 2026 00:00
Orbit: 836 x 889 km, 81.2° (Epoch: 14 March)

Date Brightness Start Highest point End Pass type
(mag) Time Alt. Az. Time Alt. Az. Time Alt. Az.
14 Mar 5.2 01:27:08 10° SSW 01:32:31 50° WNW 01:37:59 10° N visible
14 Mar 6.9 10:24:24 10° NNE 10:28:31 20° ENE 10:32:39 10° ESE visible
15 Mar 5.2 01:18:42 10° SSW 01:24:05 51° WNW 01:29:35 10° N visible
15 Mar 6.9 10:16:00 10° NNE 10:20:06 20° ENE 10:24:12 10° ESE visible
16 Mar 5.2 01:10:16 10° SSW 01:15:40 52° WNW 01:21:10 10° N visible
16 Mar 6.9 10:07:36 10° NNE 10:11:40 19° ENE 10:15:45 10° ESE visible
16 Mar 4.3 11:49:39 10° NNW 11:55:22 64° W 12:01:06 10° S visible
17 Mar 5.2 01:01:50 10° SSW 01:07:15 52° WNW 01:12:46 10° N visible
17 Mar 6.9 09:59:12 10° NNE 10:03:15 19° ENE 10:07:18 10° ESE visible
17 Mar 4.3 11:41:14 10° NNW 11:46:57 65° W 11:52:41 10° S visible
18 Mar 5.2 00:53:24 10° SSW 00:58:50 53° WNW 01:04:21 10° N visible
18 Mar 6.9 09:50:48 10° NNE 09:54:50 19° ENE 09:58:51 10° ESE visible
18 Mar 4.3 11:32:48 10° NNW 11:38:33 66° W 11:44:17 10° S visible
19 Mar 5.2 00:44:58 10° SSW 00:50:24 54° WNW 00:55:56 10° N visible
19 Mar 6.9 09:42:24 10° NNE 09:46:24 19° ENE 09:50:24 10° ESE visible
19 Mar 4.3 11:24:23 10° NNW 11:30:08 67° W 11:35:53 10° S visible
20 Mar 6.9 09:34:00 10° NNE 09:37:59 19° ENE 09:41:58 10° ESE visible
20 Mar 4.3 11:15:58 10° NNW 11:21:43 67° W 11:27:29 10° S visible
21 Mar 6.9 09:25:37 10° NNE 09:29:34 18° ENE 09:33:30 10° ESE visible
21 Mar 4.2 11:07:32 10° NNW 11:13:18 68° W 11:19:05 10° S visible
22 Mar 6.9 09:17:13 10° NNE 09:21:09 18° ENE 09:25:03 10° ESE visible
22 Mar 4.2 10:59:07 10° NNW 11:04:54 69° W 11:10:40 10° S visible
23 Mar 6.9 09:08:49 10° NNE 09:12:43 18° ENE 09:16:36 10° ESE visible
23 Mar 4.2 10:50:42 10° NNW 10:56:29 70° W 11:02:15 10° S visible
